This demonstration page uses our WeatherBlox Daily Observations layout. Learn more.

Left ArrowRight Arrow

Hourly Observations for March 12, 2015

Temp ( °F °C ) Dew Point ( °F °C ) Humidity (%) Winds ( mph kmh ) Pressure ( in mb ) Visibility ( mi km ) Precip ( " mm )
12:53 am 00:53 Clear 44 6.7 32 undefined 63 63 SW 14 22 29.94 1014 10 16 N/A
1:53 am 01:53 Clear 40 4.4 31 -0.6 70 70 WSW 13 20 29.96 1015 10 16 N/A
2:53 am 02:53 Clear 40 4.4 31 -0.6 70 70 SW 14 22 29.98 1015 10 16 N/A
3:53 am 03:53 Clear 42 5.6 32 undefined 68 68 WSW 14 22 29.99 1016 10 16 N/A
4:53 am 04:53 Clear 41 5 32 undefined 70 70 WSW 15 24 30.01 1016 10 16 N/A
5:53 am 05:53 Clear 38 3.3 32 undefined 79 79 WSW 13 20 30.03 1017 10 16 N/A
6:53 am 06:53 Clear 41 5 32 undefined 70 70 SW 14 22 30.07 1018 10 16 N/A
7:53 am 07:53 Sunny 36 2.2 31 -0.6 82 82 WNW 6 9 30.10 1019 10 16 N/A
8:53 am 08:53 Sunny 44 6.7 33 0.6 65 65 SW 16 26 30.09 1019 10 16 N/A
9:53 am 09:53 Sunny 49 9.4 34 1.1 56 56 SW 21 33 30.10 1019 10 16 N/A
10:53 am 10:53 Sunny 54 12.2 35 1.7 49 49 WSW 18 30 30.11 1020 10 16 N/A
11:53 am 11:53 Sunny 59 15 36 2.2 42 42 WSW 22 35 30.11 1020 10 16 N/A
12:53 pm 12:53 Sunny 65 18.3 35 1.7 33 33 W 26 43 30.09 1019 10 16 N/A
1:53 pm 13:53 Mostly Sunny 66 18.9 33 0.6 29 29 W 26 43 30.09 1019 10 16 N/A
2:53 pm 14:53 Mostly Cloudy 67 19.4 31 -0.6 26 26 W 30 48 30.09 1019 10 16 N/A
3:53 pm 15:53 Cloudy 66 18.9 29 -1.7 25 25 W 24 39 30.10 1019 10 16 N/A
4:53 pm 16:53 Mostly Sunny 66 18.9 30 -1.1 26 26 W 21 33 30.12 1020 10 16 N/A
5:53 pm 17:53 Mostly Cloudy 63 17.2 29 -1.7 28 28 WNW 23 37 30.14 1021 10 16 N/A
6:53 pm 18:53 Cloudy 58 14.4 28 -2.2 32 32 W 14 22 30.17 1022 10 16 N/A
7:53 pm 19:53 Clear 49 9.4 30 -1.1 48 48 WSW 12 19 30.22 1023 10 16 N/A
8:53 pm 20:53 Clear 45 7.2 29 -1.7 54 54 W 9 15 30.23 1024 10 16 N/A
9:53 pm 21:53 Clear 43 6.1 29 -1.7 58 58 VRB 3 6 30.24 1024 10 16 N/A
10:53 pm 22:53 Clear 45 7.2 30 -1.1 56 56 WNW 10 17 30.25 1024 10 16 N/A
11:53 pm 23:53 Clear 40 4.4 28 -2.2 63 63 VRB 6 9 30.28 1026 10 16 N/A

Powered by AerisWeather